{"data":{"norad_id":66962,"intl_designator":"2025-288D","name":"STARLINK-35874","alt_names":[],"object_type":"PAYLOAD","status":"ACTIVE","operator":null,"country":"US","launch_date":"2025-12-08","launch_site_code":"AFETR","launch_vehicle":null,"mission":null,"orbit_class":"UNKNOWN","rcs_meters":null,"size_class":null,"mass_kg":null,"dimensions":null,"purposes":["comms"],"wikipedia_slug":null,"has_3d_model":false,"image_url":null,"decayed_at":null,"tle_current":{"epoch":"2026-09-20T08:28:37.009632Z","epoch_age_seconds":94407,"freshness":"FRESH","line1":"1 66962U 25288D   26263.35320613  .00016675  00000+0  61390-3 0  9992","line2":"2 66962  43.0000   4.5270 0001461 262.8178  97.2507 15.27590887 45058","mean_motion":15.27590887,"eccentricity":0.0001461,"inclination_deg":43,"raan_deg":4.527,"arg_perigee_deg":262.8178,"mean_anomaly_deg":97.2507,"bstar":0.0006139,"rev_number":4505,"period_min":94.266076883188,"perigee_km":482.01408211283,"apogee_km":484.01891116455,"semimajor_km":6861.1534966387,"source":"CELESTRAK","updated_at":"2026-09-21T09:00:36.062389Z"}}}